Time,TemperatureF,DewpointF,PressureIn,WindDirection,WindDirectionDegrees,WindSpeedMPH,WindSpeedGustMPH,Humidity,HourlyPrecipIn,Conditions,Clouds,dailyrainin,SoftwareType,DateUTC
2013-02-27 00:00:00,22.0,23.0,29.84,North,360,0.0,2.0,100,0.00,,,0.00,Rainwise IP-100,2013-02-27 05:00:00,
2013-02-27 00:05:00,22.0,23.0,29.83,North,360,0.0,0.0,100,0.00,,,0.00,Rainwise IP-100,2013-02-27 05:05:00,
2013-02-27 00:10:00,22.0,23.0,29.83,North,360,0.0,0.0,100,0.00,,,0.00,Rainwise IP-100,2013-02-27 05:10:00,
2013-02-27 00:15:00,22.0,23.0,29.84,North,360,0.0,0.0,100,0.00,,,0.00,Rainwise IP-100,2013-02-27 05:15:00,
2013-02-27 00:20:00,22.0,23.0,29.84,North,360,3.0,3.0,100,0.00,,,0.00,Rainwise IP-100,2013-02-27 05:20:00,
2013-02-27 00:25:00,22.0,23.0,29.84,North,360,2.0,3.0,100,0.00,,,0.00,Rainwise IP-100,2013-02-27 05:25:00,
2013-02-27 00:30:00,22.0,23.0,29.84,North,360,1.0,2.0,100,0.00,,,0.00,Rainwise IP-100,2013-02-27 05:30:00,
2013-02-27 00:35:00,23.0,23.0,29.83,North,360,1.0,2.0,100,0.00,,,0.00,Rainwise IP-100,2013-02-27 05:35:00,
2013-02-27 00:40:00,23.0,23.0,29.83,North,360,0.0,3.0,100,0.00,,,0.00,Rainwise IP-100,2013-02-27 05:40:00,
2013-02-27 00:45:00,23.0,23.0,29.83,North,360,0.0,0.0,100,0.00,,,0.00,Rainwise IP-100,2013-02-27 05:45:00,
2013-02-27 00:50:00,23.0,23.0,29.83,North,360,0.0,2.0,100,0.00,,,0.00,Rainwise IP-100,2013-02-27 05:50:00,
2013-02-27 00:55:00,23.0,23.0,29.82,North,360,0.0,0.0,100,0.00,,,0.00,Rainwise IP-100,2013-02-27 05:55:00,
2013-02-27 01:00:00,23.0,23.0,29.82,North,360,0.0,0.0,100,0.00,,,0.00,Rainwise IP-100,2013-02-27 06:00:00,
2013-02-27 01:05:00,22.0,23.0,29.82,North,360,0.0,2.0,100,0.00,,,0.00,Rainwise IP-100,2013-02-27 06:05:00,
2013-02-27 01:10:00,22.0,23.0,29.82,North,360,0.0,1.0,100,0.00,,,0.00,Rainwise IP-100,2013-02-27 06:10:00,
2013-02-27 01:15:00,23.0,23.0,29.81,West,270,4.0,4.0,100,0.00,,,0.00,Rainwise IP-100,2013-02-27 06:15:00,
2013-02-27 01:20:00,23.0,23.0,29.81,West,270,0.0,4.0,100,0.00,,,0.00,Rainwise IP-100,2013-02-27 06:20:00,
2013-02-27 01:25:00,23.0,23.0,29.82,West,270,0.0,0.0,100,0.00,,,0.00,Rainwise IP-100,2013-02-27 06:25:00,
2013-02-27 01:30:00,23.0,23.0,29.82,West,270,0.0,0.0,100,0.00,,,0.00,Rainwise IP-100,2013-02-27 06:30:00,
2013-02-27 01:35:00,23.0,23.0,29.82,West,270,0.0,1.0,100,0.00,,,0.00,Rainwise IP-100,2013-02-27 06:35:00,
2013-02-27 01:40:00,23.0,23.0,29.82,West,270,0.0,0.0,100,0.00,,,0.00,Rainwise IP-100,2013-02-27 06:40:00,
2013-02-27 01:45:00,22.0,23.0,29.82,West,270,2.0,3.0,100,0.00,,,0.00,Rainwise IP-100,2013-02-27 06:45:00,
2013-02-27 01:50:00,23.0,23.0,29.82,West,270,0.0,2.0,100,0.00,,,0.00,Rainwise IP-100,2013-02-27 06:50:00,
2013-02-27 01:55:00,23.0,23.0,29.81,West,270,0.0,0.0,100,0.00,,,0.00,Rainwise IP-100,2013-02-27 06:55:00,
2013-02-27 02:00:00,22.0,23.0,29.81,West,270,0.0,0.0,100,0.00,,,0.00,Rainwise IP-100,2013-02-27 07:00:00,
2013-02-27 02:05:00,23.0,23.0,29.80,South,180,0.0,4.0,100,0.00,,,0.00,Rainwise IP-100,2013-02-27 07:05:00,
2013-02-27 02:10:00,24.0,24.0,29.80,SW,225,3.0,3.0,100,0.00,,,0.00,Rainwise IP-100,2013-02-27 07:10:00,
2013-02-27 02:15:00,24.0,24.0,29.79,SSW,202,2.0,4.0,100,0.00,,,0.00,Rainwise IP-100,2013-02-27 07:15:00,
2013-02-27 02:20:00,24.0,24.0,29.79,ESE,112,3.0,6.0,100,0.00,,,0.00,Rainwise IP-100,2013-02-27 07:20:00,
2013-02-27 02:25:00,25.0,26.0,29.79,South,180,2.0,5.0,100,0.00,,,0.00,Rainwise IP-100,2013-02-27 07:25:00,
2013-02-27 02:30:00,25.0,26.0,29.79,SSW,202,3.0,5.0,100,0.00,,,0.00,Rainwise IP-100,2013-02-27 07:30:00,
2013-02-27 02:35:00,25.0,26.0,29.79,SW,225,2.0,4.0,100,0.00,,,0.00,Rainwise IP-100,2013-02-27 07:35:00,
2013-02-27 02:40:00,25.0,26.0,29.79,SW,225,4.0,4.0,100,0.00,,,0.00,Rainwise IP-100,2013-02-27 07:40:00,
2013-02-27 02:45:00,25.0,26.0,29.79,SW,225,3.0,4.0,100,0.00,,,0.00,Rainwise IP-100,2013-02-27 07:45:00,
2013-02-27 02:50:00,25.0,26.0,29.79,SW,225,0.0,3.0,100,0.00,,,0.00,Rainwise IP-100,2013-02-27 07:50:00,
2013-02-27 02:55:00,24.0,24.0,29.78,East,90,0.0,1.0,100,0.00,,,0.00,Rainwise IP-100,2013-02-27 07:55:00,
2013-02-27 03:00:00,25.0,26.0,29.78,SE,135,3.0,4.0,100,0.00,,,0.00,Rainwise IP-100,2013-02-27 08:00:00,
2013-02-27 03:05:00,25.0,26.0,29.77,ESE,112,1.0,4.0,100,0.00,,,0.00,Rainwise IP-100,2013-02-27 08:05:00,
2013-02-27 03:10:00,25.0,26.0,29.77,South,180,1.0,3.0,100,0.00,,,0.00,Rainwise IP-100,2013-02-27 08:10:00,
2013-02-27 03:15:00,25.0,26.0,29.77,SSW,202,3.0,3.0,100,0.00,,,0.00,Rainwise IP-100,2013-02-27 08:15:00,
2013-02-27 03:20:00,25.0,26.0,29.77,SSW,202,3.0,3.0,100,0.00,,,0.00,Rainwise IP-100,2013-02-27 08:20:00,
2013-02-27 03:25:00,25.0,26.0,29.78,SE,135,2.0,3.0,100,0.00,,,0.00,Rainwise IP-100,2013-02-27 08:25:00,
2013-02-27 03:30:00,25.0,26.0,29.78,ESE,112,3.0,5.0,100,0.00,,,0.00,Rainwise IP-100,2013-02-27 08:30:00,
2013-02-27 03:35:00,27.0,28.0,29.77,ESE,112,3.0,6.0,100,0.00,,,0.00,Rainwise IP-100,2013-02-27 08:35:00,
2013-02-27 03:40:00,26.0,26.0,29.77,SE,135,4.0,6.0,100,0.00,,,0.00,Rainwise IP-100,2013-02-27 08:40:00,
2013-02-27 03:45:00,26.0,26.0,29.78,SSE,157,4.0,6.0,100,0.00,,,0.00,Rainwise IP-100,2013-02-27 08:45:00,
2013-02-27 03:50:00,26.0,26.0,29.78,SSE,157,1.0,6.0,100,0.00,,,0.00,Rainwise IP-100,2013-02-27 08:50:00,
2013-02-27 03:55:00,26.0,26.0,29.77,SSE,157,2.0,6.0,100,0.00,,,0.00,Rainwise IP-100,2013-02-27 08:55:00,
2013-02-27 04:00:00,26.0,26.0,29.77,ESE,112,4.0,5.0,100,0.00,,,0.00,Rainwise IP-100,2013-02-27 09:00:00,
2013-02-27 04:05:00,26.0,26.0,29.77,South,180,4.0,5.0,100,0.00,,,0.00,Rainwise IP-100,2013-02-27 09:05:00,
2013-02-27 04:10:00,26.0,26.0,29.77,SE,135,3.0,5.0,100,0.00,,,0.00,Rainwise IP-100,2013-02-27 09:10:00,
2013-02-27 04:15:00,26.0,26.0,29.77,South,180,4.0,5.0,100,0.00,,,0.00,Rainwise IP-100,2013-02-27 09:15:00,
2013-02-27 04:20:00,26.0,26.0,29.77,SSW,202,4.0,6.0,100,0.00,,,0.00,Rainwise IP-100,2013-02-27 09:20:00,
2013-02-27 04:25:00,26.0,26.0,29.78,South,180,2.0,4.0,100,0.00,,,0.00,Rainwise IP-100,2013-02-27 09:25:00,
2013-02-27 04:30:00,26.0,26.0,29.78,SSW,202,5.0,5.0,100,0.00,,,0.00,Rainwise IP-100,2013-02-27 09:30:00,
2013-02-27 04:35:00,26.0,26.0,29.79,ESE,112,0.0,5.0,100,0.00,,,0.00,Rainwise IP-100,2013-02-27 09:35:00,
2013-02-27 04:40:00,26.0,26.0,29.79,SSE,157,3.0,4.0,100,0.00,,,0.00,Rainwise IP-100,2013-02-27 09:40:00,
2013-02-27 04:45:00,26.0,26.0,29.78,South,180,3.0,5.0,100,0.00,,,0.00,Rainwise IP-100,2013-02-27 09:45:00,
2013-02-27 04:50:00,27.0,28.0,29.78,SE,135,3.0,4.0,100,0.00,,,0.00,Rainwise IP-100,2013-02-27 09:50:00,
2013-02-27 04:55:00,27.0,28.0,29.78,South,180,4.0,6.0,100,0.00,,,0.00,Rainwise IP-100,2013-02-27 09:55:00,
2013-02-27 05:00:00,27.0,28.0,29.78,SSE,157,2.0,5.0,100,0.00,,,0.00,Rainwise IP-100,2013-02-27 10:00:00,
2013-02-27 05:05:00,27.0,28.0,29.78,SE,135,3.0,5.0,100,0.00,,,0.00,Rainwise IP-100,2013-02-27 10:05:00,
2013-02-27 05:10:00,27.0,28.0,29.78,South,180,4.0,6.0,100,0.00,,,0.00,Rainwise IP-100,2013-02-27 10:10:00,
2013-02-27 05:15:00,27.0,28.0,29.77,SE,135,3.0,6.0,100,0.00,,,0.00,Rainwise IP-100,2013-02-27 10:15:00,
2013-02-27 05:20:00,27.0,28.0,29.77,SSW,202,3.0,5.0,100,0.00,,,0.00,Rainwise IP-100,2013-02-27 10:20:00,
2013-02-27 05:25:00,27.0,28.0,29.78,South,180,3.0,6.0,100,0.00,,,0.00,Rainwise IP-100,2013-02-27 10:25:00,
2013-02-27 05:30:00,27.0,28.0,29.78,South,180,1.0,5.0,100,0.00,,,0.00,Rainwise IP-100,2013-02-27 10:30:00,
2013-02-27 05:35:00,27.0,28.0,29.78,ESE,112,5.0,5.0,100,0.00,,,0.00,Rainwise IP-100,2013-02-27 10:35:00,
2013-02-27 05:40:00,27.0,28.0,29.78,SE,135,4.0,7.0,100,0.00,,,0.00,Rainwise IP-100,2013-02-27 10:40:00,
2013-02-27 05:45:00,27.0,28.0,29.78,East,90,2.0,6.0,100,0.00,,,0.00,Rainwise IP-100,2013-02-27 10:45:00,
2013-02-27 05:50:00,27.0,28.0,29.78,SSE,157,2.0,5.0,100,0.00,,,0.00,Rainwise IP-100,2013-02-27 10:50:00,
2013-02-27 05:55:00,28.0,28.0,29.77,SE,135,4.0,10.0,100,0.00,,,0.00,Rainwise IP-100,2013-02-27 10:55:00,
2013-02-27 06:00:00,28.0,28.0,29.77,East,90,5.0,10.0,99,0.00,,,0.00,Rainwise IP-100,2013-02-27 11:00:00,
2013-02-27 06:05:00,28.0,28.0,29.77,SE,135,4.0,7.0,99,0.00,,,0.00,Rainwise IP-100,2013-02-27 11:05:00,
2013-02-27 06:10:00,28.0,28.0,29.77,SSE,157,5.0,6.0,98,0.00,,,0.00,Rainwise IP-100,2013-02-27 11:10:00,
2013-02-27 06:15:00,28.0,28.0,29.78,SE,135,4.0,6.0,98,0.00,,,0.00,Rainwise IP-100,2013-02-27 11:15:00,
2013-02-27 06:20:00,28.0,28.0,29.78,SSE,157,4.0,7.0,98,0.00,,,0.00,Rainwise IP-100,2013-02-27 11:20:00,
2013-02-27 06:25:00,28.0,28.0,29.78,SSE,157,4.0,7.0,98,0.00,,,0.00,Rainwise IP-100,2013-02-27 11:25:00,
2013-02-27 06:30:00,28.0,28.0,29.78,South,180,3.0,7.0,98,0.00,,,0.00,Rainwise IP-100,2013-02-27 11:30:00,
2013-02-27 06:35:00,28.0,28.0,29.78,South,180,4.0,5.0,98,0.00,,,0.00,Rainwise IP-100,2013-02-27 11:35:00,
2013-02-27 06:40:00,28.0,28.0,29.78,South,180,1.0,6.0,98,0.00,,,0.00,Rainwise IP-100,2013-02-27 11:40:00,
2013-02-27 06:45:00,28.0,28.0,29.78,SSE,157,3.0,5.0,98,0.00,,,0.00,Rainwise IP-100,2013-02-27 11:45:00,
2013-02-27 06:50:00,28.0,28.0,29.78,South,180,5.0,6.0,97,0.00,,,0.00,Rainwise IP-100,2013-02-27 11:50:00,
2013-02-27 06:55:00,28.0,28.0,29.78,South,180,4.0,6.0,97,0.00,,,0.00,Rainwise IP-100,2013-02-27 11:55:00,
2013-02-27 07:00:00,28.0,28.0,29.78,NNE,22,1.0,6.0,97,0.00,,,0.00,Rainwise IP-100,2013-02-27 12:00:00,
2013-02-27 07:05:00,29.0,29.0,29.78,SE,135,4.0,5.0,97,0.00,,,0.00,Rainwise IP-100,2013-02-27 12:05:00,
2013-02-27 07:10:00,29.0,29.0,29.78,NE,45,1.0,8.0,97,0.00,,,0.00,Rainwise IP-100,2013-02-27 12:10:00,
2013-02-27 07:15:00,29.0,28.0,29.78,ESE,112,4.0,8.0,96,0.00,,,0.00,Rainwise IP-100,2013-02-27 12:15:00,
2013-02-27 07:20:00,29.0,28.0,29.78,ENE,67,5.0,11.0,96,0.00,,,0.00,Rainwise IP-100,2013-02-27 12:20:00,
2013-02-27 07:25:00,30.0,29.0,29.77,ESE,112,6.0,12.0,95,0.00,,,0.00,Rainwise IP-100,2013-02-27 12:25:00,
2013-02-27 07:30:00,30.0,29.0,29.77,East,90,10.0,14.0,95,0.00,,,0.00,Rainwise IP-100,2013-02-27 12:30:00,
2013-02-27 07:35:00,30.0,29.0,29.77,East,90,5.0,14.0,95,0.00,,,0.00,Rainwise IP-100,2013-02-27 12:35:00,
2013-02-27 07:40:00,31.0,29.0,29.77,ENE,67,10.0,14.0,94,0.00,,,0.00,Rainwise IP-100,2013-02-27 12:40:00,
2013-02-27 07:45:00,31.0,29.0,29.77,East,90,7.0,14.0,94,0.00,,,0.00,Rainwise IP-100,2013-02-27 12:45:00,
2013-02-27 07:50:00,31.0,29.0,29.77,ENE,67,8.0,13.0,94,0.00,,,0.00,Rainwise IP-100,2013-02-27 12:50:00,
2013-02-27 07:55:00,31.0,29.0,29.77,ENE,67,8.0,12.0,94,0.00,,,0.00,Rainwise IP-100,2013-02-27 12:55:00,
2013-02-27 08:00:00,31.0,29.0,29.77,ENE,67,11.0,12.0,95,0.00,,,0.00,Rainwise IP-100,2013-02-27 13:00:00,
2013-02-27 08:05:00,31.0,29.0,29.77,East,90,8.0,11.0,94,0.00,,,0.00,Rainwise IP-100,2013-02-27 13:05:00,
2013-02-27 08:06:00,31.0,29.0,29.77,East,90,4.0,11.0,94,0.00,,,0.00,Rainwise IP-100,2013-02-27 13:06:00,
2013-02-27 08:11:00,31.0,29.0,29.77,ENE,67,8.0,11.0,94,0.00,,,0.00,Rainwise IP-100,2013-02-27 13:11:00,
2013-02-27 08:16:00,31.0,29.0,29.77,East,90,3.0,12.0,94,0.00,,,0.00,Rainwise IP-100,2013-02-27 13:16:00,
2013-02-27 08:21:00,32.0,31.0,29.77,East,90,8.0,10.0,94,0.00,,,0.00,Rainwise IP-100,2013-02-27 13:21:00,
2013-02-27 08:26:00,32.0,31.0,29.77,ENE,67,6.0,13.0,94,0.00,,,0.00,Rainwise IP-100,2013-02-27 13:26:00,
2013-02-27 08:31:00,32.0,31.0,29.77,East,90,8.0,10.0,93,0.00,,,0.00,Rainwise IP-100,2013-02-27 13:31:00,
2013-02-27 08:36:00,32.0,31.0,29.77,ESE,112,8.0,14.0,93,0.00,,,0.00,Rainwise IP-100,2013-02-27 13:36:00,
2013-02-27 08:41:00,33.0,31.0,29.76,SE,135,6.0,12.0,92,0.00,,,0.00,Rainwise IP-100,2013-02-27 13:41:00,
2013-02-27 08:46:00,33.0,31.0,29.76,East,90,7.0,12.0,92,0.00,,,0.00,Rainwise IP-100,2013-02-27 13:46:00,
2013-02-27 08:51:00,33.0,31.0,29.76,ESE,112,8.0,11.0,91,0.00,,,0.00,Rainwise IP-100,2013-02-27 13:51:00,
2013-02-27 08:56:00,34.0,32.0,29.76,ESE,112,6.0,12.0,91,0.00,,,0.00,Rainwise IP-100,2013-02-27 13:56:00,
2013-02-27 09:01:00,34.0,32.0,29.75,ESE,112,4.0,13.0,89,0.00,,,0.00,Rainwise IP-100,2013-02-27 14:01:00,
2013-02-27 09:06:00,34.0,32.0,29.75,East,90,6.0,13.0,89,0.00,,,0.00,Rainwise IP-100,2013-02-27 14:06:00,
2013-02-27 09:11:00,35.0,31.0,29.75,ENE,67,6.0,10.0,87,0.00,,,0.00,Rainwise IP-100,2013-02-27 14:11:00,
2013-02-27 09:16:00,35.0,31.0,29.75,East,90,8.0,12.0,86,0.00,,,0.00,Rainwise IP-100,2013-02-27 14:16:00,
2013-02-27 09:21:00,35.0,31.0,29.75,ESE,112,5.0,11.0,85,0.00,,,0.00,Rainwise IP-100,2013-02-27 14:21:00,
2013-02-27 09:26:00,35.0,31.0,29.75,ESE,112,9.0,13.0,84,0.00,,,0.00,Rainwise IP-100,2013-02-27 14:26:00,
2013-02-27 09:31:00,36.0,31.0,29.74,ESE,112,7.0,14.0,82,0.00,,,0.00,Rainwise IP-100,2013-02-27 14:31:00,
2013-02-27 09:36:00,36.0,31.0,29.74,ESE,112,9.0,15.0,80,0.00,,,0.00,Rainwise IP-100,2013-02-27 14:36:00,
2013-02-27 09:41:00,37.0,31.0,29.75,East,90,8.0,12.0,79,0.00,,,0.00,Rainwise IP-100,2013-02-27 14:41:00,
2013-02-27 09:46:00,37.0,31.0,29.75,ESE,112,8.0,12.0,76,0.00,,,0.00,Rainwise IP-100,2013-02-27 14:46:00,
2013-02-27 09:51:00,37.0,29.0,29.74,SE,135,8.0,11.0,73,0.00,,,0.00,Rainwise IP-100,2013-02-27 14:51:00,
2013-02-27 09:56:00,37.0,29.0,29.74,East,90,4.0,13.0,71,0.00,,,0.00,Rainwise IP-100,2013-02-27 14:56:00,
2013-02-27 10:01:00,38.0,29.0,29.74,ESE,112,10.0,13.0,68,0.00,,,0.00,Rainwise IP-100,2013-02-27 15:01:00,
2013-02-27 10:06:00,38.0,28.0,29.74,ESE,112,11.0,13.0,66,0.00,,,0.00,Rainwise IP-100,2013-02-27 15:06:00,
2013-02-27 10:11:00,38.0,26.0,29.73,SE,135,10.0,15.0,63,0.00,,,0.00,Rainwise IP-100,2013-02-27 15:11:00,
2013-02-27 10:16:00,39.0,28.0,29.73,ESE,112,7.0,18.0,64,0.00,,,0.00,Rainwise IP-100,2013-02-27 15:16:00,
2013-02-27 10:21:00,39.0,28.0,29.72,SSE,157,7.0,12.0,64,0.00,,,0.00,Rainwise IP-100,2013-02-27 15:21:00,
2013-02-27 10:26:00,39.0,29.0,29.72,ESE,112,12.0,14.0,65,0.00,,,0.00,Rainwise IP-100,2013-02-27 15:26:00,
2013-02-27 10:31:00,39.0,28.0,29.72,South,180,2.0,15.0,64,0.00,,,0.00,Rainwise IP-100,2013-02-27 15:31:00,
2013-02-27 10:36:00,39.0,28.0,29.72,ESE,112,8.0,10.0,64,0.00,,,0.00,Rainwise IP-100,2013-02-27 15:36:00,
2013-02-27 10:41:00,40.0,29.0,29.72,East,90,9.0,17.0,65,0.00,,,0.00,Rainwise IP-100,2013-02-27 15:41:00,
2013-02-27 10:46:00,39.0,28.0,29.72,SSE,157,8.0,14.0,63,0.00,,,0.00,Rainwise IP-100,2013-02-27 15:46:00,
2013-02-27 10:51:00,40.0,28.0,29.73,SSE,157,10.0,15.0,60,0.00,,,0.00,Rainwise IP-100,2013-02-27 15:51:00,
2013-02-27 10:56:00,39.0,26.0,29.73,ESE,112,14.0,19.0,60,0.00,,,0.00,Rainwise IP-100,2013-02-27 15:56:00,
2013-02-27 11:01:00,40.0,28.0,29.72,SE,135,12.0,19.0,59,0.00,,,0.00,Rainwise IP-100,2013-02-27 16:01:00,
2013-02-27 11:06:00,39.0,26.0,29.72,SE,135,6.0,17.0,59,0.00,,,0.00,Rainwise IP-100,2013-02-27 16:06:00,
2013-02-27 11:11:00,40.0,26.0,29.72,East,90,9.0,18.0,57,0.00,,,0.00,Rainwise IP-100,2013-02-27 16:11:00,
2013-02-27 11:16:00,40.0,28.0,29.72,SE,135,9.0,18.0,58,0.00,,,0.00,Rainwise IP-100,2013-02-27 16:16:00,
2013-02-27 11:21:00,40.0,26.0,29.72,SE,135,7.0,13.0,56,0.00,,,0.00,Rainwise IP-100,2013-02-27 16:21:00,
2013-02-27 11:26:00,40.0,26.0,29.72,SE,135,6.0,15.0,55,0.00,,,0.00,Rainwise IP-100,2013-02-27 16:26:00,
2013-02-27 11:31:00,39.0,24.0,29.72,SSE,157,13.0,16.0,56,0.00,,,0.00,Rainwise IP-100,2013-02-27 16:31:00,
2013-02-27 11:36:00,39.0,24.0,29.72,South,180,12.0,17.0,56,0.00,,,0.00,Rainwise IP-100,2013-02-27 16:36:00,
2013-02-27 11:41:00,39.0,24.0,29.71,SE,135,11.0,17.0,54,0.00,,,0.00,Rainwise IP-100,2013-02-27 16:41:00,
2013-02-27 11:46:00,39.0,24.0,29.71,SSE,157,16.0,18.0,54,0.00,,,0.00,Rainwise IP-100,2013-02-27 16:46:00,
2013-02-27 11:51:00,39.0,24.0,29.69,SE,135,7.0,21.0,54,0.00,,,0.00,Rainwise IP-100,2013-02-27 16:51:00,
2013-02-27 11:56:00,40.0,26.0,29.69,SSE,157,11.0,14.0,54,0.00,,,0.00,Rainwise IP-100,2013-02-27 16:56:00,
2013-02-27 12:01:00,40.0,24.0,29.69,SSE,157,10.0,16.0,53,0.00,,,0.00,Rainwise IP-100,2013-02-27 17:01:00,
2013-02-27 12:06:00,40.0,26.0,29.69,SW,225,5.0,18.0,55,0.00,,,0.00,Rainwise IP-100,2013-02-27 17:06:00,
2013-02-27 12:11:00,40.0,26.0,29.69,South,180,8.0,15.0,55,0.00,,,0.00,Rainwise IP-100,2013-02-27 17:11:00,
2013-02-27 12:16:00,40.0,26.0,29.69,ESE,112,10.0,11.0,57,0.00,,,0.00,Rainwise IP-100,2013-02-27 17:16:00,
2013-02-27 12:21:00,41.0,28.0,29.70,SSE,157,11.0,12.0,57,0.00,,,0.00,Rainwise IP-100,2013-02-27 17:21:00,
2013-02-27 12:26:00,40.0,28.0,29.70,SE,135,14.0,17.0,59,0.00,,,0.00,Rainwise IP-100,2013-02-27 17:26:00,
2013-02-27 12:31:00,40.0,28.0,29.69,SSE,157,10.0,17.0,58,0.00,,,0.00,Rainwise IP-100,2013-02-27 17:31:00,
2013-02-27 12:36:00,40.0,26.0,29.69,SSW,202,6.0,16.0,56,0.00,,,0.00,Rainwise IP-100,2013-02-27 17:36:00,
2013-02-27 12:41:00,40.0,26.0,29.68,ESE,112,5.0,15.0,57,0.00,,,0.00,Rainwise IP-100,2013-02-27 17:41:00,
2013-02-27 12:43:00,40.0,26.0,29.68,SE,135,9.0,13.0,57,0.00,,,0.00,Rainwise IP-100,2013-02-27 17:43:00,
2013-02-27 12:44:00,40.0,26.0,29.68,SE,135,9.0,13.0,57,0.00,,,0.00,Rainwise IP-100,2013-02-27 17:44:00,
2013-02-27 12:49:00,40.0,26.0,29.68,SE,135,8.0,15.0,57,0.00,,,0.00,Rainwise IP-100,2013-02-27 17:49:00,
2013-02-27 12:54:00,40.0,26.0,29.67,SE,135,10.0,14.0,57,0.00,,,0.00,Rainwise IP-100,2013-02-27 17:54:00,
2013-02-27 12:59:00,40.0,26.0,29.67,SE,135,13.0,14.0,57,0.00,,,0.00,Rainwise IP-100,2013-02-27 17:59:00,
2013-02-27 13:04:00,40.0,28.0,29.67,SE,135,12.0,14.0,58,0.00,,,0.00,Rainwise IP-100,2013-02-27 18:04:00,
2013-02-27 13:09:00,40.0,28.0,29.67,SSE,157,10.0,15.0,59,0.00,,,0.00,Rainwise IP-100,2013-02-27 18:09:00,
2013-02-27 13:14:00,40.0,28.0,29.67,SSE,157,6.0,20.0,59,0.00,,,0.00,Rainwise IP-100,2013-02-27 18:14:00,
2013-02-27 13:16:00,40.0,28.0,29.67,SE,135,10.0,20.0,59,0.00,,,0.00,Rainwise IP-100,2013-02-27 18:16:00,
2013-02-27 13:21:00,39.0,26.0,29.67,SE,135,14.0,22.0,60,0.00,,,0.00,Rainwise IP-100,2013-02-27 18:21:00,
2013-02-27 13:26:00,39.0,26.0,29.67,ESE,112,3.0,18.0,60,0.00,,,0.00,Rainwise IP-100,2013-02-27 18:26:00,
2013-02-27 13:31:00,39.0,26.0,29.67,South,180,11.0,18.0,60,0.00,,,0.00,Rainwise IP-100,2013-02-27 18:31:00,
2013-02-27 13:36:00,39.0,28.0,29.66,SSE,157,9.0,18.0,62,0.00,,,0.00,Rainwise IP-100,2013-02-27 18:36:00,
2013-02-27 13:41:00,39.0,28.0,29.65,ESE,112,8.0,12.0,62,0.00,,,0.00,Rainwise IP-100,2013-02-27 18:41:00,
2013-02-27 13:46:00,39.0,28.0,29.65,East,90,6.0,14.0,63,0.00,,,0.00,Rainwise IP-100,2013-02-27 18:46:00,
2013-02-27 13:47:00,39.0,28.0,29.65,East,90,8.0,14.0,63,0.00,,,0.00,Rainwise IP-100,2013-02-27 18:47:00,
2013-02-27 13:52:00,38.0,28.0,29.65,SE,135,11.0,17.0,64,0.00,,,0.00,Rainwise IP-100,2013-02-27 18:52:00,
2013-02-27 13:55:00,38.0,28.0,29.65,ESE,112,7.0,17.0,65,0.00,,,0.00,Rainwise IP-100,2013-02-27 18:55:00,
2013-02-27 14:00:00,38.0,28.0,29.65,SSE,157,4.0,13.0,66,0.00,,,0.00,Rainwise IP-100,2013-02-27 19:00:00,
2013-02-27 14:05:00,38.0,28.0,29.65,ESE,112,9.0,10.0,66,0.00,,,0.00,Rainwise IP-100,2013-02-27 19:05:00,
2013-02-27 14:10:00,38.0,28.0,29.65,SE,135,10.0,11.0,67,0.00,,,0.00,Rainwise IP-100,2013-02-27 19:10:00,
2013-02-27 14:15:00,38.0,28.0,29.65,SE,135,5.0,16.0,67,0.00,,,0.00,Rainwise IP-100,2013-02-27 19:15:00,
2013-02-27 14:20:00,38.0,29.0,29.65,ESE,112,9.0,16.0,68,0.00,,,0.00,Rainwise IP-100,2013-02-27 19:20:00,
2013-02-27 14:25:00,38.0,29.0,29.65,ESE,112,6.0,13.0,68,0.00,,,0.00,Rainwise IP-100,2013-02-27 19:25:00,
2013-02-27 14:30:00,38.0,29.0,29.65,ESE,112,6.0,13.0,68,0.00,,,0.00,Rainwise IP-100,2013-02-27 19:30:00,
2013-02-27 14:35:00,37.0,28.0,29.65,SSE,157,9.0,14.0,68,0.00,,,0.00,Rainwise IP-100,2013-02-27 19:35:00,
2013-02-27 14:40:00,37.0,28.0,29.65,South,180,14.0,16.0,68,0.00,,,0.00,Rainwise IP-100,2013-02-27 19:40:00,
2013-02-27 14:45:00,37.0,28.0,29.65,ESE,112,12.0,16.0,69,0.00,,,0.00,Rainwise IP-100,2013-02-27 19:45:00,
2013-02-27 14:50:00,37.0,29.0,29.65,SE,135,10.0,15.0,71,0.00,,,0.00,Rainwise IP-100,2013-02-27 19:50:00,
2013-02-27 14:55:00,37.0,28.0,29.64,SE,135,10.0,13.0,69,0.00,,,0.00,Rainwise IP-100,2013-02-27 19:55:00,
2013-02-27 15:00:00,37.0,28.0,29.64,ESE,112,11.0,15.0,69,0.00,,,0.00,Rainwise IP-100,2013-02-27 20:00:00,
2013-02-27 15:05:00,37.0,28.0,29.63,ESE,112,8.0,20.0,69,0.00,,,0.00,Rainwise IP-100,2013-02-27 20:05:00,
2013-02-27 15:10:00,37.0,28.0,29.63,ESE,112,11.0,17.0,69,0.00,,,0.00,Rainwise IP-100,2013-02-27 20:10:00,
2013-02-27 15:15:00,37.0,28.0,29.63,ESE,112,13.0,18.0,69,0.00,,,0.00,Rainwise IP-100,2013-02-27 20:15:00,
2013-02-27 15:20:00,37.0,28.0,29.63,SE,135,9.0,18.0,69,0.00,,,0.00,Rainwise IP-100,2013-02-27 20:20:00,
2013-02-27 15:25:00,37.0,28.0,29.63,ESE,112,10.0,16.0,69,0.00,,,0.00,Rainwise IP-100,2013-02-27 20:25:00,
2013-02-27 15:30:00,37.0,28.0,29.63,ESE,112,11.0,19.0,69,0.00,,,0.00,Rainwise IP-100,2013-02-27 20:30:00,
2013-02-27 15:35:00,37.0,28.0,29.61,SE,135,9.0,18.0,69,0.00,,,0.00,Rainwise IP-100,2013-02-27 20:35:00,
2013-02-27 15:40:00,37.0,28.0,29.61,SE,135,6.0,18.0,69,0.06,,,0.01,Rainwise IP-100,2013-02-27 20:40:00,
2013-02-27 15:45:00,37.0,28.0,29.60,ESE,112,7.0,16.0,70,0.06,,,0.01,Rainwise IP-100,2013-02-27 20:45:00,
2013-02-27 15:50:00,37.0,28.0,29.60,SE,135,10.0,17.0,70,0.00,,,0.01,Rainwise IP-100,2013-02-27 20:50:00,
2013-02-27 15:55:00,37.0,29.0,29.61,SE,135,9.0,15.0,71,0.00,,,0.01,Rainwise IP-100,2013-02-27 20:55:00,
2013-02-27 16:00:00,37.0,29.0,29.61,ESE,112,9.0,20.0,72,0.00,,,0.01,Rainwise IP-100,2013-02-27 21:00:00,
2013-02-27 16:05:00,37.0,29.0,29.60,SE,135,5.0,17.0,72,0.00,,,0.01,Rainwise IP-100,2013-02-27 21:05:00,
2013-02-27 16:10:00,37.0,29.0,29.60,South,180,8.0,16.0,72,0.00,,,0.01,Rainwise IP-100,2013-02-27 21:10:00,
2013-02-27 16:15:00,37.0,29.0,29.59,East,90,5.0,12.0,72,0.00,,,0.01,Rainwise IP-100,2013-02-27 21:15:00,
2013-02-27 16:20:00,36.0,28.0,29.59,ESE,112,6.0,12.0,72,0.00,,,0.01,Rainwise IP-100,2013-02-27 21:20:00,
2013-02-27 16:25:00,36.0,28.0,29.58,East,90,7.0,15.0,72,0.00,,,0.01,Rainwise IP-100,2013-02-27 21:25:00,
2013-02-27 16:30:00,36.0,28.0,29.58,SSE,157,4.0,9.0,71,0.00,,,0.01,Rainwise IP-100,2013-02-27 21:30:00,
2013-02-27 16:35:00,36.0,28.0,29.57,ESE,112,11.0,15.0,70,0.00,,,0.01,Rainwise IP-100,2013-02-27 21:35:00,
2013-02-27 16:40:00,36.0,28.0,29.57,East,90,10.0,14.0,70,0.00,,,0.01,Rainwise IP-100,2013-02-27 21:40:00,
2013-02-27 16:45:00,36.0,28.0,29.58,ESE,112,8.0,14.0,70,0.00,,,0.01,Rainwise IP-100,2013-02-27 21:45:00,
2013-02-27 16:50:00,36.0,28.0,29.58,SSE,157,9.0,13.0,70,0.00,,,0.01,Rainwise IP-100,2013-02-27 21:50:00,
2013-02-27 16:55:00,36.0,28.0,29.58,ESE,112,6.0,16.0,71,0.00,,,0.01,Rainwise IP-100,2013-02-27 21:55:00,
2013-02-27 17:00:00,36.0,28.0,29.58,ESE,112,6.0,13.0,71,0.00,,,0.01,Rainwise IP-100,2013-02-27 22:00:00,
2013-02-27 17:05:00,36.0,28.0,29.59,ESE,112,6.0,13.0,71,0.00,,,0.01,Rainwise IP-100,2013-02-27 22:05:00,
2013-02-27 17:10:00,36.0,28.0,29.59,SE,135,15.0,15.0,71,0.00,,,0.01,Rainwise IP-100,2013-02-27 22:10:00,
2013-02-27 17:15:00,36.0,28.0,29.59,ESE,112,8.0,15.0,71,0.00,,,0.01,Rainwise IP-100,2013-02-27 22:15:00,
2013-02-27 17:20:00,36.0,28.0,29.59,ESE,112,6.0,11.0,71,0.00,,,0.01,Rainwise IP-100,2013-02-27 22:20:00,
2013-02-27 17:25:00,36.0,28.0,29.58,SE,135,9.0,15.0,70,0.00,,,0.01,Rainwise IP-100,2013-02-27 22:25:00,
2013-02-27 17:30:00,36.0,28.0,29.58,SE,135,11.0,16.0,70,0.00,,,0.01,Rainwise IP-100,2013-02-27 22:30:00,
2013-02-27 17:35:00,36.0,28.0,29.57,SE,135,12.0,17.0,70,0.00,,,0.01,Rainwise IP-100,2013-02-27 22:35:00,
2013-02-27 17:40:00,36.0,28.0,29.57,SE,135,9.0,16.0,70,0.00,,,0.01,Rainwise IP-100,2013-02-27 22:40:00,
2013-02-27 17:45:00,36.0,28.0,29.56,East,90,9.0,15.0,71,0.00,,,0.01,Rainwise IP-100,2013-02-27 22:45:00,
2013-02-27 17:50:00,36.0,28.0,29.56,ESE,112,10.0,17.0,71,0.00,,,0.01,Rainwise IP-100,2013-02-27 22:50:00,
2013-02-27 17:55:00,36.0,28.0,29.56,ESE,112,7.0,19.0,72,0.00,,,0.01,Rainwise IP-100,2013-02-27 22:55:00,
2013-02-27 18:00:00,35.0,28.0,29.56,ESE,112,13.0,22.0,77,0.00,,,0.01,Rainwise IP-100,2013-02-27 23:00:00,
2013-02-27 18:05:00,35.0,29.0,29.55,East,90,12.0,20.0,82,0.00,,,0.01,Rainwise IP-100,2013-02-27 23:05:00,
2013-02-27 18:10:00,34.0,32.0,29.55,ESE,112,12.0,21.0,88,0.00,,,0.01,Rainwise IP-100,2013-02-27 23:10:00,
2013-02-27 18:15:00,33.0,32.0,29.55,SE,135,11.0,16.0,93,0.00,,,0.01,Rainwise IP-100,2013-02-27 23:15:00,
2013-02-27 18:20:00,33.0,32.0,29.55,East,90,7.0,15.0,95,0.00,,,0.01,Rainwise IP-100,2013-02-27 23:20:00,
2013-02-27 18:25:00,33.0,32.0,29.55,ESE,112,5.0,14.0,97,0.00,,,0.01,Rainwise IP-100,2013-02-27 23:25:00,
2013-02-27 18:30:00,32.0,32.0,29.55,SE,135,4.0,15.0,99,0.00,,,0.01,Rainwise IP-100,2013-02-27 23:30:00,
2013-02-27 18:35:00,32.0,32.0,29.55,SE,135,10.0,13.0,100,0.00,,,0.01,Rainwise IP-100,2013-02-27 23:35:00,
2013-02-27 18:40:00,32.0,32.0,29.55,ESE,112,14.0,14.0,100,0.00,,,0.01,Rainwise IP-100,2013-02-27 23:40:00,
2013-02-27 18:45:00,32.0,32.0,29.55,SSE,157,6.0,14.0,100,0.00,,,0.01,Rainwise IP-100,2013-02-27 23:45:00,
2013-02-27 18:50:00,32.0,32.0,29.55,ESE,112,6.0,12.0,100,0.00,,,0.01,Rainwise IP-100,2013-02-27 23:50:00,
2013-02-27 18:55:00,32.0,32.0,29.54,SE,135,11.0,12.0,100,0.00,,,0.01,Rainwise IP-100,2013-02-27 23:55:00,
2013-02-27 19:00:00,32.0,32.0,29.54,ESE,112,6.0,14.0,100,0.00,,,0.01,Rainwise IP-100,2013-02-28 00:00:00,
2013-02-27 19:05:00,32.0,32.0,29.55,ESE,112,8.0,14.0,100,0.00,,,0.01,Rainwise IP-100,2013-02-28 00:05:00,
2013-02-27 19:10:00,32.0,32.0,29.55,East,90,5.0,12.0,100,0.00,,,0.01,Rainwise IP-100,2013-02-28 00:10:00,
2013-02-27 19:15:00,32.0,32.0,29.54,ESE,112,10.0,13.0,100,0.00,,,0.01,Rainwise IP-100,2013-02-28 00:15:00,
2013-02-27 19:20:00,32.0,32.0,29.54,East,90,5.0,15.0,100,0.00,,,0.01,Rainwise IP-100,2013-02-28 00:20:00,
2013-02-27 19:25:00,32.0,32.0,29.54,ESE,112,8.0,13.0,100,0.00,,,0.01,Rainwise IP-100,2013-02-28 00:25:00,
2013-02-27 19:30:00,32.0,32.0,29.54,SE,135,6.0,15.0,100,0.00,,,0.01,Rainwise IP-100,2013-02-28 00:30:00,
2013-02-27 19:35:00,32.0,32.0,29.53,ESE,112,7.0,17.0,100,0.00,,,0.01,Rainwise IP-100,2013-02-28 00:35:00,
2013-02-27 19:40:00,32.0,32.0,29.53,SSE,157,8.0,15.0,100,0.00,,,0.01,Rainwise IP-100,2013-02-28 00:40:00,
2013-02-27 19:45:00,32.0,32.0,29.53,SE,135,8.0,15.0,100,0.00,,,0.01,Rainwise IP-100,2013-02-28 00:45:00,
2013-02-27 19:50:00,32.0,32.0,29.53,East,90,6.0,14.0,100,0.00,,,0.01,Rainwise IP-100,2013-02-28 00:50:00,
2013-02-27 19:55:00,32.0,32.0,29.53,ESE,112,10.0,18.0,100,0.00,,,0.01,Rainwise IP-100,2013-02-28 00:55:00,
2013-02-27 20:00:00,32.0,32.0,29.53,East,90,10.0,18.0,100,0.00,,,0.01,Rainwise IP-100,2013-02-28 01:00:00,
2013-02-27 20:05:00,32.0,32.0,29.52,ESE,112,14.0,17.0,100,0.00,,,0.01,Rainwise IP-100,2013-02-28 01:05:00,
2013-02-27 20:10:00,32.0,32.0,29.52,SSE,157,9.0,20.0,100,0.00,,,0.01,Rainwise IP-100,2013-02-28 01:10:00,
2013-02-27 20:15:00,31.0,31.0,29.51,East,90,7.0,18.0,100,0.00,,,0.01,Rainwise IP-100,2013-02-28 01:15:00,
2013-02-27 20:20:00,31.0,31.0,29.51,SE,135,16.0,19.0,100,0.00,,,0.01,Rainwise IP-100,2013-02-28 01:20:00,
2013-02-27 20:25:00,31.0,31.0,29.51,SE,135,8.0,19.0,100,0.00,,,0.01,Rainwise IP-100,2013-02-28 01:25:00,
2013-02-27 20:30:00,31.0,31.0,29.51,SSE,157,14.0,19.0,100,0.00,,,0.01,Rainwise IP-100,2013-02-28 01:30:00,
2013-02-27 20:35:00,31.0,31.0,29.51,East,90,8.0,24.0,100,0.00,,,0.01,Rainwise IP-100,2013-02-28 01:35:00,
2013-02-27 20:40:00,31.0,31.0,29.51,SE,135,6.0,19.0,100,0.00,,,0.01,Rainwise IP-100,2013-02-28 01:40:00,
2013-02-27 20:45:00,30.0,31.0,29.49,South,180,7.0,19.0,100,0.00,,,0.01,Rainwise IP-100,2013-02-28 01:45:00,
2013-02-27 20:50:00,30.0,31.0,29.49,SE,135,16.0,27.0,100,0.00,,,0.01,Rainwise IP-100,2013-02-28 01:50:00,
2013-02-27 20:55:00,30.0,31.0,29.49,SSE,157,17.0,22.0,100,0.00,,,0.01,Rainwise IP-100,2013-02-28 01:55:00,
2013-02-27 21:00:00,30.0,31.0,29.49,SE,135,13.0,24.0,100,0.00,,,0.01,Rainwise IP-100,2013-02-28 02:00:00,
2013-02-27 21:02:00,30.0,31.0,29.50,East,90,12.0,22.0,100,0.00,,,0.01,Rainwise IP-100,2013-02-28 02:02:00,
2013-02-27 21:07:00,30.0,31.0,29.50,East,90,4.0,21.0,100,0.00,,,0.01,Rainwise IP-100,2013-02-28 02:07:00,
2013-02-27 21:12:00,30.0,31.0,29.48,SE,135,6.0,22.0,100,0.00,,,0.01,Rainwise IP-100,2013-02-28 02:12:00,
2013-02-27 21:17:00,30.0,31.0,29.48,SE,135,7.0,19.0,100,0.00,,,0.01,Rainwise IP-100,2013-02-28 02:17:00,
2013-02-27 21:22:00,30.0,31.0,29.48,SSE,157,9.0,18.0,100,0.00,,,0.01,Rainwise IP-100,2013-02-28 02:22:00,
2013-02-27 21:27:00,30.0,31.0,29.48,ESE,112,10.0,23.0,100,0.00,,,0.01,Rainwise IP-100,2013-02-28 02:27:00,
2013-02-27 21:32:00,30.0,31.0,29.47,ESE,112,11.0,20.0,100,0.00,,,0.01,Rainwise IP-100,2013-02-28 02:32:00,
2013-02-27 21:37:00,30.0,31.0,29.47,East,90,11.0,23.0,100,0.00,,,0.01,Rainwise IP-100,2013-02-28 02:37:00,
2013-02-27 21:42:00,30.0,31.0,29.47,ESE,112,17.0,27.0,100,0.00,,,0.01,Rainwise IP-100,2013-02-28 02:42:00,
2013-02-27 21:47:00,30.0,31.0,29.47,ESE,112,12.0,19.0,100,0.00,,,0.01,Rainwise IP-100,2013-02-28 02:47:00,
2013-02-27 21:52:00,30.0,31.0,29.46,SE,135,15.0,24.0,100,0.00,,,0.01,Rainwise IP-100,2013-02-28 02:52:00,
2013-02-27 21:57:00,30.0,31.0,29.46,SE,135,11.0,24.0,100,0.00,,,0.01,Rainwise IP-100,2013-02-28 02:57:00,
2013-02-27 22:02:00,30.0,31.0,29.44,SSE,157,6.0,25.0,100,0.00,,,0.01,Rainwise IP-100,2013-02-28 03:02:00,
2013-02-27 22:07:00,30.0,31.0,29.44,ENE,67,14.0,25.0,100,0.00,,,0.01,Rainwise IP-100,2013-02-28 03:07:00,
2013-02-27 22:12:00,30.0,31.0,29.45,ESE,112,11.0,30.0,100,0.00,,,0.01,Rainwise IP-100,2013-02-28 03:12:00,
2013-02-27 22:17:00,30.0,31.0,29.45,East,90,16.0,24.0,100,0.00,,,0.01,Rainwise IP-100,2013-02-28 03:17:00,
2013-02-27 22:22:00,30.0,31.0,29.43,East,90,3.0,24.0,100,0.00,,,0.01,Rainwise IP-100,2013-02-28 03:22:00,
2013-02-27 22:27:00,30.0,31.0,29.43,East,90,16.0,22.0,100,0.00,,,0.01,Rainwise IP-100,2013-02-28 03:27:00,
2013-02-27 22:32:00,31.0,31.0,29.42,SSE,157,10.0,26.0,100,0.00,,,0.01,Rainwise IP-100,2013-02-28 03:32:00,
2013-02-27 22:37:00,31.0,31.0,29.42,SE,135,21.0,21.0,100,0.00,,,0.01,Rainwise IP-100,2013-02-28 03:37:00,
2013-02-27 22:42:00,31.0,31.0,29.39,ESE,112,10.0,26.0,100,0.00,,,0.01,Rainwise IP-100,2013-02-28 03:42:00,
2013-02-27 22:47:00,31.0,31.0,29.39,East,90,16.0,29.0,100,0.00,,,0.01,Rainwise IP-100,2013-02-28 03:47:00,
2013-02-27 22:52:00,31.0,31.0,29.39,SE,135,16.0,24.0,100,0.00,,,0.01,Rainwise IP-100,2013-02-28 03:52:00,
2013-02-27 22:57:00,31.0,31.0,29.39,ESE,112,5.0,24.0,100,0.00,,,0.01,Rainwise IP-100,2013-02-28 03:57:00,
2013-02-27 23:02:00,31.0,31.0,29.36,ESE,112,29.0,29.0,100,0.00,,,0.01,Rainwise IP-100,2013-02-28 04:02:00,
2013-02-27 23:07:00,32.0,32.0,29.36,ESE,112,7.0,29.0,100,0.00,,,0.01,Rainwise IP-100,2013-02-28 04:07:00,
2013-02-27 23:12:00,32.0,32.0,29.36,East,90,14.0,21.0,100,0.00,,,0.01,Rainwise IP-100,2013-02-28 04:12:00,
2013-02-27 23:17:00,32.0,32.0,29.36,SSE,157,9.0,29.0,100,0.00,,,0.01,Rainwise IP-100,2013-02-28 04:17:00,
2013-02-27 23:22:00,32.0,32.0,29.37,SSE,157,27.0,27.0,100,0.00,,,0.01,Rainwise IP-100,2013-02-28 04:22:00,
2013-02-27 23:27:00,32.0,32.0,29.37,South,180,15.0,30.0,100,0.00,,,0.01,Rainwise IP-100,2013-02-28 04:27:00,
2013-02-27 23:32:00,32.0,32.0,29.35,SE,135,10.0,29.0,100,0.00,,,0.01,Rainwise IP-100,2013-02-28 04:32:00,
2013-02-27 23:37:00,32.0,32.0,29.35,SE,135,11.0,25.0,100,0.00,,,0.01,Rainwise IP-100,2013-02-28 04:37:00,
2013-02-27 23:42:00,32.0,32.0,29.35,ESE,112,9.0,24.0,100,0.00,,,0.01,Rainwise IP-100,2013-02-28 04:42:00,
2013-02-27 23:47:00,32.0,32.0,29.37,SSE,157,11.0,25.0,100,0.00,,,0.01,Rainwise IP-100,2013-02-28 04:47:00,
2013-02-27 23:52:00,32.0,32.0,29.35,East,90,17.0,19.0,100,0.00,,,0.01,Rainwise IP-100,2013-02-28 04:52:00,
2013-02-27 23:57:00,32.0,32.0,29.35,SE,135,8.0,30.0,100,0.00,,,0.01,Rainwise IP-100,2013-02-28 04:57:00,